| time (UTC) | temp F | wind direction | speed MPH | gust MPH | rain 1hr in | rain 24hr in | rain mn in | humidity % | barometer mb |
| 20260901045605 | 61 | 157 | 1.0 | 2.0 | 0.00 | 0.00 | 0.00 | 73 | 1004.1 |
| 20260901045107 | 61 | 225 | 0.0 | 2.0 | 0.00 | 0.00 | 0.00 | 73 | 1004.1 |
| 20260901044605 | 61 | 247 | 0.0 | 6.0 | 0.00 | 0.00 | 0.00 | 73 | 1004.1 |
| 20260901044105 | 62 | 228 | 1.0 | 8.0 | 0.00 | 0.00 | 0.00 | 73 | 1004.1 |
| 20260901043605 | 62 | 221 | 0.0 | 3.0 | 0.00 | 0.00 | 0.00 | 73 | 1004.1 |
| 20260901043105 | 62 | 292 | 1.0 | 5.0 | 0.00 | 0.00 | 0.00 | 73 | 1004.1 |
| 20260901042607 | 62 | 157 | 2.0 | 5.0 | 0.00 | 0.00 | 0.00 | 73 | 1004.1 |
| 20260901042106 | 62 | 212 | 0.0 | 2.0 | 0.00 | 0.00 | 0.00 | 73 | 1004.1 |
| 20260901041605 | 62 | 231 | 1.0 | 7.0 | 0.00 | 0.00 | 0.00 | 73 | 1004.1 |
| 20260901041106 | 62 | 185 | 2.0 | 9.0 | 0.00 | 0.00 | 0.00 | 73 | 1004.1 |
| 20260901040605 | 62 | 219 | 1.0 | 6.0 | 0.00 | 0.00 | 0.00 | 73 | 1003.7 |
| 20260901040106 | 62 | 225 | 1.0 | 2.0 | 0.00 | 0.00 | 0.00 | 73 | 1003.7 |
| 20260901035605 | 62 | 173 | 1.0 | 6.0 | 0.00 | 0.00 | 0.00 | 73 | 1003.7 |
| 20260901034606 | 62 | 212 | 2.0 | 5.0 | 0.00 | 0.00 | 0.00 | 73 | 1003.7 |
| 20260901034106 | 62 | 221 | 2.0 | 6.0 | 0.00 | 0.00 | 0.00 | 73 | 1003.4 |
| 20260901033605 | 62 | 142 | 2.0 | 7.0 | 0.00 | 0.00 | 0.00 | 73 | 1003.4 |
| 20260901033105 | 62 | 276 | 2.0 | 5.0 | 0.00 | 0.00 | 0.00 | 73 | 1003.4 |
| 20260901032605 | 63 | 224 | 2.0 | 5.0 | 0.00 | 0.00 | 0.00 | 72 | 1003.4 |
| 20260901031606 | 63 | 190 | 1.0 | 5.0 | 0.00 | 0.00 | 0.00 | 72 | 1003.4 |
| 20260901031105 | 63 | 159 | 2.0 | 6.0 | 0.00 | 0.00 | 0.00 | 72 | 1003.4 |
| 20260901030606 | 63 | 90 | 1.0 | 8.0 | 0.00 | 0.00 | 0.00 | 72 | 1003.1 |
| 20260901030106 | 63 | 225 | 1.0 | 7.0 | 0.00 | 0.00 | 0.00 | 72 | 1003.0 |
| 20260901025605 | 63 | 228 | 1.0 | 6.0 | 0.00 | 0.00 | 0.00 | 72 | 1003.1 |
| 20260901025106 | 63 | 177 | 1.0 | 3.0 | 0.00 | 0.00 | 0.00 | 72 | 1003.4 |
| 20260901024605 | 63 | 219 | 2.0 | 7.0 | 0.00 | 0.00 | 0.00 | 71 | 1003.3 |
| 20260901024107 | 63 | 225 | 2.0 | 6.0 | 0.00 | 0.00 | 0.00 | 71 | 1003.4 |
| 20260901023605 | 63 | 198 | 1.0 | 10.0 | 0.00 | 0.00 | 0.00 | 70 | 1003.4 |
| 20260901023105 | 64 | 119 | 3.0 | 8.0 | 0.00 | 0.00 | 0.00 | 70 | 1003.0 |
| 20260901022606 | 64 | 164 | 2.0 | 8.0 | 0.00 | 0.00 | 0.00 | 70 | 1003.0 |
| 20260901022106 | 64 | 213 | 3.0 | 8.0 | 0.00 | 0.00 | 0.00 | 70 | 1003.0 |
| 20260901021105 | 64 | 163 | 1.0 | 5.0 | 0.00 | 0.00 | 0.00 | 70 | 1003.0 |
| 20260901020605 | 64 | 153 | 3.0 | 8.0 | 0.00 | 0.00 | 0.00 | 69 | 1003.4 |
| 20260901015605 | 65 | 204 | 2.0 | 7.0 | 0.00 | 0.00 | 0.00 | 69 | 1003.0 |
| 20260901015107 | 65 | 200 | 1.0 | 3.0 | 0.00 | 0.00 | 0.00 | 69 | 1003.0 |
| 20260901013607 | 66 | 131 | 2.0 | 10.0 | 0.00 | 0.00 | 0.00 | 68 | 1003.0 |
| 20260901013105 | 66 | 142 | 2.0 | 8.0 | 0.00 | 0.00 | 0.00 | 66 | 1002.7 |
| 20260901012605 | 67 | 138 | 2.0 | 12.0 | 0.00 | 0.00 | 0.00 | 65 | 1002.8 |
| 20260901012105 | 67 | 137 | 3.0 | 7.0 | 0.00 | 0.00 | 0.00 | 65 | 1003.0 |
| 20260901011105 | 67 | 182 | 2.0 | 8.0 | 0.00 | 0.00 | 0.00 | 66 | 1003.0 |
| 20260901010605 | 67 | 165 | 1.0 | 7.0 | 0.00 | 0.00 | 0.00 | 65 | 1003.0 |
| 20260901010106 | 68 | 251 | 1.0 | 10.0 | 0.00 | 0.00 | 0.00 | 64 | 1002.7 |
| 20260901005105 | 69 | 124 | 2.0 | 9.0 | 0.00 | 0.00 | 0.00 | 62 | 1002.7 |
| 20260901004605 | 69 | 104 | 2.0 | 7.0 | 0.00 | 0.00 | 0.00 | 62 | 1002.8 |
| 20260901004105 | 69 | 308 | 2.0 | 9.0 | 0.00 | 0.00 | 0.00 | 62 | 1002.7 |
| 20260901003605 | 69 | 178 | 2.0 | 7.0 | 0.00 | 0.00 | 0.00 | 62 | 1003.0 |
| 20260901003105 | 69 | 220 | 2.0 | 8.0 | 0.00 | 0.00 | 0.00 | 62 | 1003.0 |
| 20260901002605 | 69 | 163 | 2.0 | 9.0 | 0.00 | 0.00 | 0.00 | 62 | 1002.8 |
| 20260901002106 | 69 | 135 | 2.0 | 10.0 | 0.00 | 0.00 | 0.00 | 62 | 1003.0 |
| 20260901001605 | 69 | 145 | 2.0 | 7.0 | 0.00 | 0.00 | 0.00 | 63 | 1003.0 |
| 20260901000605 | 69 | 186 | 2.0 | 8.0 | 0.00 | 0.00 | 0.00 | 62 | 1002.8 |
| 20260901000105 | 69 | 242 | 3.0 | 9.0 | 0.00 | 0.00 | 0.00 | 63 | 1003.0 |
| 20260831235605 | 69 | 189 | 3.0 | 9.0 | 0.00 | 0.00 | 0.00 | 62 | 1003.0 |
| 20260831235105 | 69 | 199 | 3.0 | 7.0 | 0.00 | 0.00 | 0.00 | 61 | 1003.0 |
| 20260831234606 | 70 | 177 | 3.0 | 10.0 | 0.00 | 0.00 | 0.00 | 60 | 1003.0 |
| 20260831234105 | 71 | 221 | 5.0 | 13.0 | 0.00 | 0.00 | 0.00 | 60 | 1003.0 |
| 20260831233605 | 71 | 148 | 3.0 | 6.0 | 0.00 | 0.00 | 0.00 | 61 | 1002.7 |
| 20260831232605 | 70 | 119 | 3.0 | 9.0 | 0.00 | 0.00 | 0.00 | 60 | 1002.7 |
| 20260831232106 | 71 | 216 | 3.0 | 9.0 | 0.00 | 0.00 | 0.00 | 59 | 1003.0 |
| 20260831231606 | 71 | 151 | 3.0 | 9.0 | 0.00 | 0.00 | 0.00 | 59 | 1003.0 |
| 20260831231105 | 71 | 113 | 2.0 | 8.0 | 0.00 | 0.00 | 0.00 | 59 | 1003.0 |
| 20260831230105 | 71 | 166 | 3.0 | 7.0 | 0.00 | 0.00 | 0.00 | 60 | 1003.0 |
| 20260831225105 | 71 | 150 | 3.0 | 9.0 | 0.00 | 0.00 | 0.00 | 59 | 1003.3 |
| 20260831224605 | 71 | 194 | 3.0 | 12.0 | 0.00 | 0.00 | 0.00 | 59 | 1003.3 |
| 20260831224105 | 71 | 212 | 2.0 | 10.0 | 0.00 | 0.00 | 0.00 | 60 | 1003.0 |
| 20260831223604 | 70 | 254 | 3.0 | 7.0 | 0.00 | 0.00 | 0.00 | 61 | 1003.0 |
| 20260831223105 | 70 | 43 | 3.0 | 8.0 | 0.00 | 0.00 | 0.00 | 61 | 1003.4 |
| 20260831222605 | 70 | 140 | 4.0 | 10.0 | 0.00 | 0.00 | 0.00 | 61 | 1003.4 |
| 20260831222105 | 70 | 216 | 3.0 | 7.0 | 0.00 | 0.00 | 0.00 | 62 | 1003.4 |
| 20260831221604 | 69 | 239 | 3.0 | 10.0 | 0.00 | 0.00 | 0.00 | 62 | 1003.7 |
| 20260831220606 | 69 | 223 | 3.0 | 8.0 | 0.00 | 0.00 | 0.00 | 62 | 1003.4 |
| 20260831220106 | 69 | 232 | 4.0 | 8.0 | 0.00 | 0.00 | 0.00 | 63 | 1003.4 |
| 20260831215606 | 69 | 213 | 3.0 | 7.0 | 0.00 | 0.00 | 0.00 | 63 | 1003.7 |
| 20260831214606 | 68 | 238 | 3.0 | 10.0 | 0.00 | 0.00 | 0.00 | 64 | 1003.7 |
| 20260831214105 | 68 | 215 | 5.0 | 12.0 | 0.00 | 0.00 | 0.00 | 64 | 1003.7 |
| 20260831213604 | 68 | 239 | 5.0 | 13.0 | 0.00 | 0.00 | 0.00 | 64 | 1003.8 |
| 20260831213105 | 68 | 268 | 5.0 | 13.0 | 0.00 | 0.00 | 0.00 | 63 | 1004.0 |
| 20260831212604 | 69 | 247 | 6.0 | 13.0 | 0.00 | 0.00 | 0.00 | 62 | 1004.0 |
| 20260831211604 | 70 | 218 | 6.0 | 12.0 | 0.00 | 0.00 | 0.00 | 61 | 1003.7 |
| 20260831211105 | 70 | 231 | 5.0 | 10.0 | 0.00 | 0.00 | 0.00 | 60 | 1003.8 |
| 20260831210105 | 70 | 155 | 3.0 | 9.0 | 0.00 | 0.00 | 0.00 | 60 | 1003.7 |
| 20260831205604 | 70 | 177 | 4.0 | 16.0 | 0.00 | 0.00 | 0.00 | 60 | 1004.0 |
| 20260831204606 | 70 | 145 | 5.0 | 15.0 | 0.00 | 0.00 | 0.00 | 61 | 1004.0 |
| 20260831204105 | 69 | 162 | 5.0 | 12.0 | 0.00 | 0.00 | 0.00 | 62 | 1003.8 |
| 20260831203605 | 69 | 139 | 3.0 | 10.0 | 0.00 | 0.00 | 0.00 | 62 | 1004.0 |
| 20260831203104 | 69 | 161 | 5.0 | 13.0 | 0.00 | 0.00 | 0.00 | 62 | 1003.8 |
| 20260831202105 | 68 | 141 | 5.0 | 12.0 | 0.00 | 0.00 | 0.00 | 62 | 1003.7 |
| 20260831201605 | 68 | 135 | 5.0 | 12.0 | 0.00 | 0.00 | 0.00 | 62 | 1003.7 |
| 20260831201105 | 68 | 142 | 5.0 | 13.0 | 0.00 | 0.00 | 0.00 | 62 | 1003.7 |
| 20260831200605 | 68 | 136 | 4.0 | 17.0 | 0.00 | 0.00 | 0.00 | 63 | 1003.7 |
| 20260831200105 | 68 | 148 | 5.0 | 12.0 | 0.00 | 0.00 | 0.00 | 62 | 1004.0 |
| 20260831195606 | 69 | 135 | 3.0 | 12.0 | 0.00 | 0.00 | 0.00 | 63 | 1003.8 |
| 20260831195105 | 68 | 162 | 3.0 | 8.0 | 0.00 | 0.00 | 0.00 | 64 | 1003.8 |
| 20260831194605 | 67 | 130 | 3.0 | 7.0 | 0.00 | 0.00 | 0.00 | 65 | 1004.1 |
| 20260831194105 | 67 | 179 | 3.0 | 9.0 | 0.00 | 0.00 | 0.00 | 65 | 1004.1 |
| 20260831193604 | 67 | 143 | 6.0 | 15.0 | 0.00 | 0.00 | 0.00 | 65 | 1004.1 |
| 20260831193105 | 67 | 137 | 5.0 | 10.0 | 0.00 | 0.00 | 0.00 | 65 | 1004.1 |
| 20260831192605 | 67 | 135 | 5.0 | 13.0 | 0.00 | 0.00 | 0.00 | 66 | 1004.1 |
| 20260831192105 | 67 | 146 | 6.0 | 15.0 | 0.00 | 0.00 | 0.00 | 66 | 1004.3 |
| 20260831191606 | 67 | 134 | 4.0 | 10.0 | 0.00 | 0.00 | 0.00 | 66 | 1004.3 |
| 20260831190604 | 66 | 134 | 3.0 | 13.0 | 0.00 | 0.00 | 0.00 | 66 | 1004.1 |
| 20260831190104 | 66 | 145 | 5.0 | 16.0 | 0.00 | 0.00 | 0.00 | 66 | 1004.1 |
| 20260831185605 | 66 | 142 | 3.0 | 10.0 | 0.00 | 0.00 | 0.00 | 67 | 1004.1 |
| 20260831185105 | 66 | 127 | 5.0 | 10.0 | 0.00 | 0.00 | 0.00 | 67 | 1004.1 |
| 20260831184604 | 66 | 127 | 6.0 | 15.0 | 0.00 | 0.00 | 0.00 | 68 | 1004.1 |
| 20260831184105 | 66 | 142 | 6.0 | 13.0 | 0.00 | 0.00 | 0.00 | 67 | 1004.4 |
| 20260831183106 | 66 | 135 | 5.0 | 15.0 | 0.00 | 0.00 | 0.00 | 68 | 1004.4 |
| 20260831182604 | 65 | 144 | 5.0 | 12.0 | 0.00 | 0.00 | 0.00 | 68 | 1004.4 |
| 20260831182106 | 65 | 131 | 5.0 | 13.0 | 0.00 | 0.00 | 0.00 | 69 | 1004.4 |
| 20260831181605 | 65 | 156 | 6.0 | 14.0 | 0.00 | 0.00 | 0.00 | 68 | 1004.1 |
| 20260831180606 | 65 | 134 | 5.0 | 10.0 | 0.00 | 0.00 | 0.00 | 69 | 1004.1 |
| 20260831180106 | 65 | 151 | 4.0 | 12.0 | 0.00 | 0.00 | 0.00 | 69 | 1004.3 |
| 20260831175605 | 65 | 139 | 5.0 | 10.0 | 0.00 | 0.00 | 0.00 | 69 | 1004.1 |
| 20260831175104 | 65 | 137 | 5.0 | 12.0 | 0.00 | 0.00 | 0.00 | 69 | 1004.1 |
| 20260831174105 | 65 | 151 | 7.0 | 16.0 | 0.00 | 0.00 | 0.00 | 70 | 1004.1 |
| 20260831173105 | 64 | 145 | 3.0 | 7.0 | 0.00 | 0.00 | 0.00 | 72 | 1004.1 |
| 20260831172605 | 63 | 130 | 3.0 | 8.0 | 0.00 | 0.00 | 0.00 | 73 | 1004.1 |
| 20260831172105 | 63 | 134 | 3.0 | 15.0 | 0.00 | 0.00 | 0.00 | 73 | 1004.1 |
| 20260831171105 | 62 | 154 | 6.0 | 15.0 | 0.00 | 0.00 | 0.00 | 75 | 1004.1 |
| 20260831170605 | 62 | 138 | 5.0 | 14.0 | 0.00 | 0.00 | 0.00 | 76 | 1004.1 |
| 20260831170105 | 61 | 153 | 5.0 | 12.0 | 0.00 | 0.00 | 0.00 | 77 | 1003.8 |
| 20260831165604 | 61 | 157 | 4.0 | 12.0 | 0.00 | 0.00 | 0.00 | 77 | 1004.1 |
| 20260831165105 | 61 | 132 | 5.0 | 14.0 | 0.00 | 0.00 | 0.00 | 77 | 1004.1 |
| 20260831164604 | 61 | 124 | 5.0 | 9.0 | 0.00 | 0.00 | 0.00 | 78 | 1003.8 |
| 20260831164104 | 60 | 145 | 4.0 | 10.0 | 0.00 | 0.00 | 0.00 | 79 | 1004.1 |
| 20260831163105 | 60 | 155 | 4.0 | 14.0 | 0.00 | 0.00 | 0.00 | 79 | 1003.8 |
| 20260831162605 | 60 | 128 | 3.0 | 10.0 | 0.00 | 0.00 | 0.00 | 79 | 1004.0 |
| 20260831162105 | 60 | 144 | 5.0 | 10.0 | 0.00 | 0.00 | 0.00 | 80 | 1003.8 |
| 20260831161605 | 60 | 148 | 5.0 | 12.0 | 0.00 | 0.00 | 0.00 | 80 | 1003.7 |
| 20260831161105 | 59 | 142 | 4.0 | 12.0 | 0.00 | 0.00 | 0.00 | 80 | 1003.7 |
| 20260831160605 | 59 | 159 | 3.0 | 10.0 | 0.00 | 0.00 | 0.00 | 80 | 1003.7 |
| 20260831160105 | 59 | 148 | 3.0 | 7.0 | 0.00 | 0.00 | 0.00 | 81 | 1003.7 |
| 20260831155604 | 59 | 131 | 2.0 | 10.0 | 0.00 | 0.00 | 0.00 | 81 | 1003.7 |
| 20260831155105 | 59 | 146 | 3.0 | 10.0 | 0.00 | 0.00 | 0.00 | 81 | 1003.7 |
| 20260831154604 | 59 | 199 | 3.0 | 7.0 | 0.00 | 0.00 | 0.00 | 81 | 1003.7 |
| 20260831154104 | 59 | 165 | 3.0 | 7.0 | 0.00 | 0.00 | 0.00 | 81 | 1003.8 |
| 20260831153604 | 59 | 164 | 2.0 | 8.0 | 0.00 | 0.00 | 0.00 | 81 | 1003.7 |
| 20260831153105 | 59 | 136 | 3.0 | 8.0 | 0.00 | 0.00 | 0.00 | 81 | 1003.8 |
| 20260831152604 | 59 | 120 | 5.0 | 10.0 | 0.00 | 0.00 | 0.00 | 82 | 1003.7 |
| 20260831152104 | 59 | 93 | 4.0 | 13.0 | 0.00 | 0.00 | 0.00 | 82 | 1003.7 |
| 20260831151604 | 59 | 145 | 3.0 | 6.0 | 0.00 | 0.00 | 0.00 | 82 | 1003.7 |
| 20260831151104 | 59 | 145 | 2.0 | 8.0 | 0.00 | 0.00 | 0.00 | 82 | 1003.7 |
| 20260831150105 | 58 | 123 | 2.0 | 6.0 | 0.00 | 0.00 | 0.00 | 83 | 1003.7 |
| 20260831145604 | 58 | 215 | 2.0 | 10.0 | 0.00 | 0.00 | 0.00 | 83 | 1003.4 |
| 20260831145105 | 58 | 145 | 3.0 | 9.0 | 0.00 | 0.00 | 0.00 | 83 | 1003.6 |
| 20260831144104 | 58 | 144 | 3.0 | 8.0 | 0.00 | 0.00 | 0.00 | 83 | 1003.4 |
| 20260831142604 | 58 | 137 | 2.0 | 10.0 | 0.00 | 0.00 | 0.00 | 83 | 1003.4 |
| 20260831142104 | 58 | 124 | 3.0 | 10.0 | 0.00 | 0.00 | 0.00 | 83 | 1003.0 |
| 20260831141604 | 58 | 134 | 3.0 | 9.0 | 0.00 | 0.00 | 0.00 | 83 | 1003.1 |
| 20260831141105 | 58 | 146 | 3.0 | 6.0 | 0.00 | 0.00 | 0.00 | 84 | 1003.0 |
| 20260831140604 | 58 | 164 | 3.0 | 10.0 | 0.00 | 0.00 | 0.00 | 84 | 1003.0 |
| 20260831135604 | 58 | 125 | 5.0 | 9.0 | 0.00 | 0.00 | 0.00 | 84 | 1003.0 |
| 20260831134604 | 58 | 143 | 4.0 | 10.0 | 0.00 | 0.00 | 0.00 | 84 | 1002.7 |
| 20260831134104 | 57 | 157 | 3.0 | 8.0 | 0.00 | 0.00 | 0.00 | 84 | 1002.7 |
| 20260831133105 | 58 | 155 | 4.0 | 8.0 | 0.00 | 0.00 | 0.00 | 83 | 1002.7 |
| 20260831132604 | 58 | 155 | 3.0 | 9.0 | 0.00 | 0.00 | 0.00 | 83 | 1002.7 |
| 20260831132104 | 58 | 130 | 5.0 | 14.0 | 0.00 | 0.00 | 0.00 | 83 | 1002.6 |
| 20260831131604 | 58 | 154 | 5.0 | 8.0 | 0.00 | 0.00 | 0.00 | 83 | 1002.7 |
| 20260831131104 | 58 | 137 | 5.0 | 10.0 | 0.00 | 0.00 | 0.00 | 83 | 1002.7 |
| 20260831130605 | 58 | 149 | 5.0 | 13.0 | 0.00 | 0.00 | 0.00 | 83 | 1002.6 |
| 20260831130104 | 58 | 140 | 3.0 | 8.0 | 0.00 | 0.00 | 0.00 | 83 | 1002.7 |
| 20260831125604 | 57 | 141 | 5.0 | 10.0 | 0.00 | 0.00 | 0.00 | 84 | 1002.7 |
| 20260831124604 | 58 | 138 | 2.0 | 6.0 | 0.00 | 0.00 | 0.00 | 84 | 1002.4 |
| 20260831124104 | 58 | 149 | 3.0 | 8.0 | 0.00 | 0.00 | 0.00 | 84 | 1002.4 |
| 20260831123104 | 58 | 154 | 3.0 | 8.0 | 0.00 | 0.00 | 0.00 | 84 | 1002.4 |
| 20260831122604 | 58 | 147 | 3.0 | 8.0 | 0.00 | 0.00 | 0.00 | 84 | 1002.4 |
| 20260831122104 | 58 | 147 | 3.0 | 12.0 | 0.00 | 0.00 | 0.00 | 84 | 1002.4 |
| 20260831121103 | 58 | 118 | 2.0 | 10.0 | 0.00 | 0.00 | 0.00 | 84 | 1002.4 |
| 20260831120604 | 58 | 160 | 5.0 | 10.0 | 0.00 | 0.00 | 0.00 | 84 | 1002.4 |
| 20260831120104 | 58 | 150 | 4.0 | 12.0 | 0.00 | 0.00 | 0.00 | 84 | 1002.4 |
| 20260831115604 | 58 | 142 | 4.0 | 7.0 | 0.00 | 0.00 | 0.00 | 84 | 1002.4 |
| 20260831115104 | 58 | 142 | 4.0 | 8.0 | 0.00 | 0.00 | 0.00 | 84 | 1002.3 |
| 20260831114604 | 58 | 152 | 5.0 | 9.0 | 0.00 | 0.00 | 0.00 | 84 | 1002.0 |
| 20260831114104 | 58 | 132 | 3.0 | 8.0 | 0.00 | 0.00 | 0.00 | 84 | 1002.0 |
| 20260831113605 | 58 | 130 | 3.0 | 12.0 | 0.00 | 0.00 | 0.00 | 85 | 1002.0 |
| 20260831113104 | 58 | 158 | 2.0 | 5.0 | 0.00 | 0.00 | 0.00 | 85 | 1002.0 |
| 20260831112605 | 58 | 154 | 3.0 | 8.0 | 0.00 | 0.00 | 0.00 | 85 | 1002.0 |
| 20260831112104 | 58 | 141 | 3.0 | 6.0 | 0.00 | 0.00 | 0.00 | 85 | 1002.0 |
| 20260831111605 | 58 | 155 | 3.0 | 9.0 | 0.00 | 0.00 | 0.00 | 85 | 1002.0 |
| 20260831111105 | 58 | 146 | 3.0 | 6.0 | 0.00 | 0.00 | 0.00 | 85 | 1002.0 |
| 20260831110604 | 58 | 130 | 3.0 | 9.0 | 0.00 | 0.00 | 0.00 | 85 | 1002.1 |
| 20260831110104 | 58 | 140 | 3.0 | 8.0 | 0.00 | 0.00 | 0.00 | 85 | 1002.4 |
| 20260831105604 | 58 | 141 | 5.0 | 12.0 | 0.00 | 0.00 | 0.00 | 85 | 1002.0 |
| 20260831104604 | 58 | 135 | 3.0 | 8.0 | 0.00 | 0.00 | 0.00 | 85 | 1002.0 |
| 20260831104105 | 58 | 128 | 3.0 | 8.0 | 0.00 | 0.00 | 0.00 | 85 | 1002.0 |
| 20260831103604 | 58 | 116 | 3.0 | 8.0 | 0.00 | 0.00 | 0.00 | 85 | 1002.0 |
| 20260831103105 | 58 | 141 | 3.0 | 8.0 | 0.00 | 0.00 | 0.00 | 85 | 1002.0 |
| 20260831101604 | 58 | 131 | 2.0 | 8.0 | 0.00 | 0.00 | 0.00 | 84 | 1001.7 |
| 20260831101104 | 58 | 157 | 5.0 | 8.0 | 0.00 | 0.00 | 0.00 | 84 | 1001.8 |
| 20260831100604 | 58 | 136 | 3.0 | 7.0 | 0.00 | 0.00 | 0.00 | 84 | 1001.9 |
| 20260831100104 | 58 | 133 | 5.0 | 9.0 | 0.00 | 0.00 | 0.00 | 84 | 1001.9 |
| 20260831095605 | 58 | 143 | 5.0 | 15.0 | 0.00 | 0.00 | 0.00 | 84 | 1002.0 |
| 20260831094104 | 58 | 155 | 3.0 | 7.0 | 0.00 | 0.00 | 0.00 | 84 | 1002.0 |
| 20260831093604 | 59 | 141 | 5.0 | 9.0 | 0.00 | 0.00 | 0.00 | 84 | 1001.9 |
| 20260831093105 | 59 | 137 | 4.0 | 7.0 | 0.00 | 0.00 | 0.00 | 84 | 1002.0 |
| 20260831092604 | 59 | 110 | 3.0 | 6.0 | 0.00 | 0.00 | 0.00 | 84 | 1002.0 |
| 20260831092104 | 59 | 122 | 3.0 | 7.0 | 0.00 | 0.00 | 0.00 | 84 | 1001.8 |
| 20260831091605 | 59 | 125 | 3.0 | 8.0 | 0.00 | 0.00 | 0.00 | 84 | 1002.0 |
| 20260831091104 | 59 | 129 | 3.0 | 7.0 | 0.00 | 0.00 | 0.00 | 84 | 1002.0 |
| 20260831090604 | 59 | 141 | 4.0 | 8.0 | 0.00 | 0.00 | 0.00 | 84 | 1001.9 |
| 20260831090105 | 59 | 149 | 3.0 | 7.0 | 0.00 | 0.00 | 0.00 | 84 | 1002.0 |
| 20260831085603 | 59 | 132 | 3.0 | 6.0 | 0.00 | 0.00 | 0.00 | 84 | 1002.0 |
| 20260831085103 | 59 | 146 | 3.0 | 10.0 | 0.00 | 0.00 | 0.00 | 83 | 1002.0 |
| 20260831084603 | 59 | 136 | 2.0 | 5.0 | 0.00 | 0.00 | 0.00 | 83 | 1001.8 |
| 20260831083603 | 59 | 136 | 4.0 | 9.0 | 0.00 | 0.00 | 0.00 | 83 | 1002.0 |
| 20260831083104 | 59 | 117 | 2.0 | 10.0 | 0.00 | 0.00 | 0.00 | 83 | 1002.0 |
| 20260831082604 | 59 | 155 | 2.0 | 7.0 | 0.00 | 0.00 | 0.00 | 82 | 1002.0 |
| 20260831082104 | 59 | 135 | 1.0 | 6.0 | 0.00 | 0.00 | 0.00 | 82 | 1002.0 |
| 20260831081104 | 59 | 139 | 1.0 | 6.0 | 0.00 | 0.00 | 0.00 | 81 | 1002.0 |
| 20260831080105 | 59 | 151 | 3.0 | 9.0 | 0.00 | 0.00 | 0.00 | 80 | 1002.2 |
| 20260831075604 | 60 | 137 | 2.0 | 5.0 | 0.00 | 0.00 | 0.00 | 80 | 1002.4 |
| 20260831075103 | 60 | 135 | 2.0 | 5.0 | 0.00 | 0.00 | 0.00 | 80 | 1002.4 |
| 20260831074603 | 60 | 140 | 3.0 | 7.0 | 0.00 | 0.00 | 0.00 | 79 | 1002.2 |
| 20260831074104 | 60 | 141 | 3.0 | 7.0 | 0.00 | 0.00 | 0.00 | 79 | 1002.0 |
| 20260831073604 | 60 | 116 | 1.0 | 3.0 | 0.00 | 0.00 | 0.00 | 79 | 1002.0 |
| 20260831073104 | 59 | 124 | 2.0 | 7.0 | 0.00 | 0.00 | 0.00 | 78 | 1002.0 |
| 20260831072605 | 59 | 152 | 3.0 | 6.0 | 0.00 | 0.00 | 0.00 | 78 | 1002.0 |
| 20260831072104 | 59 | 91 | 2.0 | 5.0 | 0.00 | 0.00 | 0.00 | 78 | 1002.0 |
| 20260831071604 | 59 | 139 | 2.0 | 5.0 | 0.00 | 0.00 | 0.00 | 78 | 1002.2 |
| 20260831071105 | 59 | 140 | 2.0 | 5.0 | 0.00 | 0.00 | 0.00 | 78 | 1002.0 |
| 20260831070603 | 59 | 113 | 2.0 | 8.0 | 0.00 | 0.00 | 0.00 | 79 | 1002.0 |
| 20260831070106 | 59 | 145 | 3.0 | 5.0 | 0.00 | 0.00 | 0.00 | 78 | 1002.2 |
| 20260831065606 | 59 | 140 | 3.0 | 9.0 | 0.00 | 0.00 | 0.00 | 78 | 1002.4 |
| 20260831064605 | 60 | 146 | 1.0 | 6.0 | 0.00 | 0.00 | 0.00 | 77 | 1002.2 |
| 20260831064106 | 60 | 149 | 1.0 | 6.0 | 0.00 | 0.00 | 0.00 | 76 | 1002.4 |
| 20260831063605 | 60 | 129 | 2.0 | 8.0 | 0.00 | 0.00 | 0.00 | 76 | 1002.0 |
| 20260831062606 | 60 | 116 | 2.0 | 5.0 | 0.00 | 0.00 | 0.00 | 75 | 1002.3 |
| 20260831062106 | 61 | 138 | 3.0 | 7.0 | 0.00 | 0.00 | 0.00 | 74 | 1002.2 |
| 20260831061606 | 61 | 149 | 2.0 | 5.0 | 0.00 | 0.00 | 0.00 | 74 | 1002.0 |
| 20260831060606 | 61 | 110 | 1.0 | 6.0 | 0.00 | 0.00 | 0.00 | 73 | 1002.2 |
| 20260831060105 | 61 | 135 | 2.0 | 5.0 | 0.00 | 0.00 | 0.00 | 72 | 1002.0 |
| 20260831055606 | 62 | 108 | 1.0 | 3.0 | 0.00 | 0.00 | 0.00 | 72 | 1002.0 |
| 20260831055107 | 62 | 135 | 1.0 | 2.0 | 0.00 | 0.00 | 0.00 | 71 | 1002.0 |
| 20260831054606 | 62 | 136 | 2.0 | 3.0 | 0.00 | 0.00 | 0.00 | 70 | 1001.9 |
| 20260831054106 | 62 | 109 | 1.0 | 3.0 | 0.00 | 0.00 | 0.00 | 70 | 1002.0 |
| 20260831053605 | 63 | 137 | 2.0 | 5.0 | 0.00 | 0.00 | 0.00 | 69 | 1001.9 |
| 20260831053106 | 63 | 125 | 2.0 | 3.0 | 0.00 | 0.00 | 0.00 | 68 | 1002.0 |
| 20260831052606 | 63 | 135 | 1.0 | 3.0 | 0.00 | 0.00 | 0.00 | 68 | 1001.9 |
| 20260831052106 | 64 | 133 | 1.0 | 3.0 | 0.00 | 0.00 | 0.00 | 67 | 1002.0 |
| 20260831051605 | 64 | 135 | 2.0 | 3.0 | 0.00 | 0.00 | 0.00 | 66 | 1002.0 |
| 20260831051107 | 64 | 135 | 1.0 | 3.0 | 0.00 | 0.00 | 0.00 | 66 | 1002.0 |
| 20260831050605 | 64 | 138 | 1.0 | 5.0 | 0.00 | 0.00 | 0.00 | 65 | 1002.0 |
| 20260831050106 | 65 | 137 | 1.0 | 5.0 | 0.00 | 0.00 | 0.00 | 64 | 1002.0 |